Sitka Rocky Gutierrez current weather conditions

sailwx.info

Wind from 080 at 5 knots

Air temperature 3.0° C
Visibility: greater than 8.7 NM
Dewpoint 1.0° C

Last reported at 2015-Mar-28 09:53 UTC.
Time now 2015-Mar-28 12:19 UTC

Location: N 57°03' W 135°22'.
View on Google Maps.

See reports from other nearby stations

  
Tides and Currents Weather Stations Pressure Air Temp Water Temp Dewpoint Dewpoint Depression Visibility Wind Speed Wind Dir Waves Ship Positions
date/time (UTC)wind fromknots sea level pressurealtimeterstation pressurevisibilityair tempwater tempwave heightnotes
2015-Mar-28 10:53 090 5 8.7 3.0
2015-Mar-28 09:53 080 5 8.7 3.0
2015-Mar-28 08:53 100 6 8.7 3.0
2015-Mar-28 07:53 080 4 8.7 3.0
2015-Mar-28 06:53 100 5 8.7 3.0
2015-Mar-28 05:53 110 5 8.7 4.0
2015-Mar-28 04:53 100 5 8.7 4.0
2015-Mar-28 03:53 100 5 8.7 4.0
2015-Mar-28 02:53 080 3 8.7 6.0
2015-Mar-28 01:53 8.7 6.0
2015-Mar-28 01:41 8.7 6.0
2015-Mar-28 00:53 040 6 7.8 5.0 Light rain.
2015-Mar-28 00:19 080 6 5.2 4.0 Rain. Mist.
2015-Mar-28 00:12 060 7 1.5 5.0 Heavy rain. Mist.
2015-Mar-27 23:53 070 6 8.7 6.0 Light rain.
2015-Mar-27 23:05 320 4 3.5 5.0 Heavy rain. Mist.
2015-Mar-27 22:56 330 8 2.2 6.0 Rain. Mist.
2015-Mar-27 22:53 340 9 2.6 6.0 Rain. Mist.
2015-Mar-27 21:53 070 6 8.7 7.0
2015-Mar-27 20:53 080 7 8.7 4.0
2015-Mar-27 19:53 3.5 7.0 Light rain.
2015-Mar-27 18:53 070 6 8.7 6.0
2015-Mar-27 17:53 130 12 7.8 6.0 Light rain.
2015-Mar-27 17:02 110 8 8.7 6.0
2015-Mar-27 16:53 090 8 8.7 6.0
2015-Mar-27 15:53 100 8 8.7 6.0
2015-Mar-27 14:53 120 7 8.7 6.0 Light rain.
2015-Mar-27 13:53 130 4 8.7 6.0
2015-Mar-27 13:36 100 7 8.7 6.0
2015-Mar-27 12:53 100 10 8.7 6.0
2015-Mar-27 11:53 110 6 8.7 6.0
2015-Mar-27 11:04 090 5 8.7 6.0
2015-Mar-27 10:53 100 7 8.7 6.0
2015-Mar-27 09:53 120 11 8.7 6.0
2015-Mar-27 08:53 110 9 8.7 7.0
2015-Mar-27 08:01 110 8 8.7 6.0
2015-Mar-27 07:53 110 11 8.7 6.0 Light rain.
2015-Mar-27 07:41 120 10 8.7 6.0 Light rain.
2015-Mar-27 06:53 090 8 8.7 6.0
2015-Mar-27 05:53 090 6 8.7 7.0
2015-Mar-27 05:13 100 8 8.7 7.0
2015-Mar-27 05:01 150 6 8.7 7.0
2015-Mar-27 04:53 130 3 6.1 7.0 Light rain.
2015-Mar-27 03:53 090 6 8.7 8.0
2015-Mar-27 02:53 150 6 8.7 8.0
2015-Mar-27 01:53 190 11 8.7 8.0
2015-Mar-27 00:53 190 7 4.3 8.0 Light rain.
2015-Mar-26 23:53 200 13 gusting 20 8.710.0
2015-Mar-26 22:53 160 3 8.7 9.0
2015-Mar-26 21:53 190 7 8.7 9.0
2015-Mar-26 20:53 190 8 8.7 9.0
2015-Mar-26 19:53 180 7 8.7 9.0
2015-Mar-26 19:00 180 9 8.7 8.0
2015-Mar-26 18:53 160 10 8.7 8.0
2015-Mar-26 18:12 160 7 3.5 7.0 Light rain. Mist.
2015-Mar-26 17:53 180 8 6.1 8.0
2015-Mar-26 17:20 180 7 4.3 8.0 Light rain. Mist.
2015-Mar-26 16:56 180 10 2.6 8.0 Light rain. Mist.
2015-Mar-26 16:55 190 10 2.2 8.0 Light rain. Mist.
2015-Mar-26 16:53 180 9 2.6 8.0 Light rain. Mist.
2015-Mar-26 16:36 150 9 1.5 7.0 Heavy rain. Mist.
2015-Mar-26 16:00 180 11 2.6 7.0 Light rain. Mist.
2015-Mar-26 15:56 150 10 2.2 7.0 Light rain. Mist.
2015-Mar-26 15:53 140 11 2.6 7.0 Rain. Mist.
2015-Mar-26 14:53 120 10 3.5 7.0 Rain. Mist.
2015-Mar-26 13:53 110 13 8.7 9.0
2015-Mar-26 12:53 160 10 8.7 8.0